Location: B�hl
(48.6968°N, 8.1352°E)
Time: 23:54:32
(UTC+00:00)

Cosmos 1869 Rocket - Pass Details

Date: 08 March 2021
Orbit: 605 x 633 km, 82.5° (Epoch: 20 April)

Event Time Altitude Azimuth Distance (km) Brightness Sun altitude
Rises 18:02:17 0° 166° (SSE) 2,869 6.8 -7.4°
Reaches altitude 10° 18:04:36 10° 158° (SSE) 1,973 5.9 -7.8°
Maximum altitude 18:08:37 36° 91° (E) 982 4.1 -8.5°
Drops below altitude 10° 18:12:41 10° 25° (NNE) 2,006 6.0 -9.1°
Sets 18:15:03 0° 17° (NNE) 2,922 6.9 -9.5°
